Regional Weather Roundup
Issued by NWS

Home | Current Version | Previous Version | Text Only | Print | Product List | Glossary On
Versions: 1 2 3 4 5 6 7 8 9 10 11 12 13 14 15 16 17 18 19 20 21 22 23 24 25 26 27 28 29 30 31 32 33 34 35 36 37 38 39 40 41 42 43 44 45 46 47 48 49 50
000
ASUS43 KLOT 240812
RWRIL

ILLINOIS REGIONAL WEATHER ROUNDUP
NATIONAL WEATHER SERVICE CHICAGO/ROMEOVILLE IL
300 AM CDT SUN MAY 24 2015

NOTE: "FAIR" INDICATES FEW OR NO CLOUDS BELOW 12,000 FEET WITH NO
SIGNIFICANT WEATHER AND/OR OBSTRUCTIONS TO VISIBILITY.

* THESE STATIONS ARE NOT UNDER NWS QUALITY CONTROL. THEY ALSO MAY NOT
  REPORT WEATHER SUCH AS PRECIPITATION OR FOG.

ILZ001-002-007-009-015-016-024-240900-
NORTHWEST ILLINOIS

CITY           SKY/WX    TMP DP  RH WIND       PRES   REMARKS
MOLINE         LGT RAIN  66  51  58 VRB7      30.13F
STERLING*      CLOUDY    66  50  55 SE3       30.16S
SAVANNA*       CLOUDY    62  52  71 CALM      30.16R
$$

ILZ003-004-008-010-011-017-018-240900-
NORTH CENTRAL ILLINOIS

CITY           SKY/WX    TMP DP  RH WIND       PRES   REMARKS
ROCKFORD       CLOUDY    62  49  62 S5        30.20R
FREEPORT*      CLOUDY    58  51  76 SE3       30.19S
ROCHELLE*      CLOUDY    62  50  65 SE5       30.19R
DE KALB*       MOCLDY    58  48  68 E5        30.20S
PERU*          CLOUDY    66  49  55 SE8       30.17F
$$

ILZ005-006-012>014-019>023-240900-
NORTHEAST ILLINOIS

CITY           SKY/WX    TMP DP  RH WIND       PRES   REMARKS
CHICAGO-OHARE  MOCLDY    62  47  57 S5        30.19R
CHICAGO-MIDWAY MOCLDY    67  46  47 S6        30.19S
AURORA         MOCLDY    59  47  64 E6        30.19R
LANSING*       PTCLDY    60  44  55 SE3       30.21R
JOLIET*        PTCLDY    61  52  71 CALM      30.19S
WAUKEGAN       PTCLDY    56  45  66 SW6       30.19R
DUPAGE AIRPORT MOCLDY    59  49  69 CALM      30.19R
KANKAKEE*      MOCLDY    59  51  73 SE5       30.20S
WHEELING       PTCLDY    57  48  72 CALM      30.21R
MORRIS*        MOCLDY    64  48  57 CALM      30.16S
ROMEOVILLE*    MOCLDY    61  47  59 SE5       30.19S
NORTHERLY ISL    N/A     67  44  43 S6          N/A
$$

LMZ740>746-240900-
SOUTHERN LAKE MICHIGAN

STATION/POSITION SKY/WX   TEMP    WIND        PRES    VSBY  WAVE
                          AIR SEA DIR/SP/G                  HT/PER
                          (F)     (DEG/KT/KT) (MB)    (MI)  (FT/S)
SOUTHERN BUOY              47 38  170/ 10/ 10 1022.9S         0
HARRISON CRIB              68     190/  9/ 10   N/A
BURNHAM HARBOR             68     200/  6/  8   N/A
CALUMET HARBOR             66     180/  4/  5   N/A
BURNS HARBOR               65     180/  6/  9 1023.0S
MICHIGAN CITY              67     140/  9/ 11   N/A
MICHIGAN CITY 6N           59 54  190/  2/  4   N/A           0
ST. JOSEPH                 60 56  200/  6/  8   N/A           0
$$

ILZ025>027-034>036-040-047-049-050-058-095>099-240900-
WEST-CENTRAL ILLINOIS

CITY           SKY/WX    TMP DP  RH WIND       PRES   REMARKS
QUINCY         LGT RAIN  65  54  67 SW8       30.14R
GALESBURG*     CLOUDY    64  53  67 E5        30.14F
MACOMB*        CLOUDY    66  52  59 SE5       30.15F
JACKSONVILLE*  CLOUDY    68  53  58 SE7       30.13F
PITTSFIELD*    CLOUDY    66  53  63 CALM      30.13S
$$

ILZ028>032-037-038-041>044-048-051>054-059>061-240900-
CENTRAL ILLINOIS

CITY           SKY/WX    TMP DP  RH WIND       PRES   REMARKS
PONTIAC        CLOUDY    64  53  66 E6        30.19S
BLOOMINGTON    CLOUDY    66  51  58 S6        30.19S
DECATUR        CLOUDY    65  51  60 SE7       30.17S
PEORIA         CLOUDY    69  49  48 SE3       30.16S
LACON*         HVY RAIN  62  54  74 S6        30.18R
LINCOLN*       CLOUDY    67  51  56 S3        30.15S
SPRINGFIELD    CLOUDY    70  50  49 SE10      30.15S
TAYLORVILLE    CLOUDY    64  50  59 SE8       30.15F
$$

ILZ033-039-045-046-055>057-062-063-240900-
EAST-CENTRAL ILLINOIS

CITY           SKY/WX    TMP DP  RH WIND       PRES   REMARKS
CHAMPAIGN      CLOUDY    65  52  62 SE5       30.19R
DANVILLE*      CLOUDY    63  50  62 SE6       30.18S
RANTOUL*       CLOUDY    66  53  61 SE3       30.19S
MATTOON        CLOUDY    63  50  62 SE5       30.18R
PARIS*         CLOUDY    64  51  62 CALM      30.21R
$$

ILZ079-100>102-240900-
SOUTHWEST ILLINOIS

CITY           SKY/WX    TMP DP  RH WIND       PRES   REMARKS
ALTON          CLOUDY    64  57  79 E3        30.13F
BELLEVILLE     CLOUDY    64  56  75 E3        30.12S
CAHOKIA*       CLOUDY    66  54  65 SE6       30.11F
SPARTA*        CLOUDY    64  55  72 SE7       30.12F
$$

ILZ064>066-069>071-074>076-080>082-084>086-088>090-092>094-240900-
SOUTH-CENTRAL ILLINOIS

CITY           SKY/WX    TMP DP  RH WIND       PRES   REMARKS
CARBONDALE     CLOUDY    63  54  72 SE5       30.13F
CAIRO*         MOCLDY    64  58  81 E5        30.13F
EFFINGHAM*     CLOUDY    61  51  71 CALM      30.19F
MARION         MOCLDY    64  54  68 SE5       30.14S
MT. VERNON     CLOUDY    64  50  59 E5        30.15F
CENTRALIA*     CLOUDY    63  51  64 E3        30.14F
SALEM*         CLOUDY    67  51  57 E5        30.16S
METROPOLIS*    PTCLDY    63  58  82 CALM      30.14F
$$

ILZ067-068-072-073-078-083-087-091-240900-
SOUTHEAST ILLINOIS

CITY           SKY/WX    TMP DP  RH WIND       PRES   REMARKS
LAWRENCEVILLE  MOCLDY    61  53  75 E7        30.19S
FLORA*         MOCLDY    62  53  72 SE5       30.17F
FAIRFIELD*     CLOUDY    65  52  62 CALM      30.15F
HARRISBURG*    PTCLDY    63  55  77 E5        30.16F
ROBINSON*      MOCLDY    62  53  72 SE6       30.20S
CARMI*         MOCLDY    61  52  72 CALM      30.15F
$$

ABBREVIATIONS USED IN REMARKS
   TC - TEMPERATURE IN CELSIUS
  WCI - WIND CHILL INDEX
   HX - HEAT INDEX
  VSB - VISIBILITY
$$




USA.gov is the U.S. government's official web portal to all federal, state and local government web resources and services.